Flag for Germany Weather past 2 weeks in Norden, Lower Saxony, Germany

Now
51 °F

Overcast.


Feels Like: 47 °F
Forecast: 49 / 54 °F
Wind: 13 mph from Southwest

Location: Norderney

Current Time: May 29, 2015 at 11:33:37 PM

Latest Report: May 29, 2015 at 11:00 PM


Visibility: 18 mi

Pressure: 29.58 "Hg

Humidity: 79%

Dew point: 45 °F

Location of NordenLocation

Historic Weather in Norden — Graph

°F

Norden temperature yesterday

Maximum temperature yesterday: 58 °F (at 2:00 PM)
Minimum temperature yesterday: 52 °F (at 4:00 AM)
Average temperature yesterday: 54 °F

Past Weeks' High & Low Weather Summary

 TemperatureHumidityPressure
High60 °F (May 22, 4:00 PM)97% (May 25, 3:00 AM)30.30 "Hg (May 25, 3:00 AM)
Low45 °F (May 15, 4:00 AM)56% (May 29, 1:00 PM)29.50 "Hg (May 18, 8:00 PM)
Average52 °F75%30.01 "Hg
* Reported May 14 10:00 PM — May 29 10:00 PM, Norden, Weather by CustomWeather, © 2015

Note: Actual official high and low records may vary slightly from our data, if they occured in-between our weather recording intervals... More about our weather records

Advertising

Norden weather history for previous 24 hours

 ConditionsComfort  
Time TempWeatherWind HumidityBarometerVisibility
10:00 PM
Fri, May 29
52 °FLight rain. Overcast.12 mph76%29.58 "Hg22 mi
9:00 PM52 °FLight rain. Overcast.8 mph88%29.58 "Hg3 mi
8:00 PM52 °FDrizzle. Overcast.6 mph90%29.61 "Hg6 mi
7:00 PM52 °FLight rain. Overcast.5 mph86%29.64 "Hg9 mi
6:00 PM52 °FPartly sunny.3 mph80%29.66 "Hg16 mi
5:00 PM51 °FLight rain. Overcast.5 mph82%29.70 "Hg14 mi
4:00 PM51 °FLight rain. Overcast.6 mph84%29.72 "Hg6 mi
3:00 PM51 °FLight rain. Overcast.9 mph87%29.72 "Hg3 mi
2:00 PM53 °FLight rain. Overcast.10 mph77%29.73 "Hg12 mi
1:00 PM58 °FOvercast.7 mph56%29.73 "Hg14 mi
12:00 PM57 °FOvercast.6 mph65%29.76 "Hg7 mi
11:00 AM55 °FLight rain. Partly sunny.8 mph72%29.79 "Hg7 mi
10:00 AM54 °FPartly sunny.6 mph72%29.80 "Hg14 mi
9:00 AM52 °FOvercast.6 mph73%29.81 "Hg9 mi
8:00 AM51 °FOvercast.5 mph78%29.82 "Hg14 mi
7:00 AM50 °FLight rain. Overcast.5 mph82%29.84 "Hg11 mi
6:00 AM49 °FOvercast.5 mph85%29.85 "Hg11 mi
5:00 AM51 °FPassing clouds.6 mph73%29.85 "Hg19 mi
4:00 AM51 °FClear.6 mph76%29.86 "Hg18 mi
3:00 AM51 °FClear.7 mph75%29.88 "Hg17 mi
11:00 PM
Thu, May 28
52 °FPassing clouds.6 mph65%29.90 "Hg25 mi
Weather by CustomWeather, © 2015

See weather overviewHow to use our weather pages